Regional Weather Roundup
Issued by NWS

Home | Current Version | Previous Version | Text Only | Print | Product List | Glossary Off
Versions: 1 2 3 4 5 6 7 8 9 10 11 12 13 14 15 16 17 18 19 20 21 22 23 24 25 26 27 28 29 30 31 32 33 34 35 36 37 38 39 40 41 42 43 44 45 46 47 48 49 50

000
ASUS44 KMEG 181000
RWRTN
TENNESSEE HOURLY STATE WEATHER ROUNDUP
NATIONAL WEATHER SERVICE MEMPHIS TN
400 AM CST SUN FEB 18 2018

TNZ002-004-019-021-049-052-054-088>092-181100-
WEST TENNESSEE

CITY           SKY/WX    TMP DP  RH WIND       PRES   REMARKS
MEMPHIS INTL   FAIR      38  37  97 E3        30.27R
NWS MEMPHIS      N/A     33 N/A N/A MISG        N/A
JACKSON        FOG       31  31 100 CALM      30.29R VSB 1/4
DYERSBURG      FOG       32  32 100 E5        30.30R VSB 1/4 WCI  27
$$

TNZ008-025-027-028-033-062-065-066-181100-
NORTH MIDDLE TENNESSEE

CITY           SKY/WX    TMP DP  RH WIND       PRES   REMARKS
NASHVILLE      FAIR      36  33  89 NE7       30.31R WCI  30
CLARKSVILLE    FOG       30  28  92 N3        30.31R VSB 1/4
SMYRNA         FAIR      34  33  96 N3        30.31R
CROSSVILLE     FAIR      37  32  82 N6        30.25S WCI  32
$$

TNZ061-075-076-078-094-096-097-181100-
SOUTH MIDDLE TENNESSEE

CITY           SKY/WX    TMP DP  RH WIND       PRES   REMARKS
$$

TNZ017-018-042-046-047-181100-
NORTHEAST TENNESSEE

CITY           SKY/WX    TMP DP  RH WIND       PRES   REMARKS
TRI CITIES     MOCLDY    41  39  93 W7        30.24R
$$

TNZ012-013-036-069-073-074-181100-
CENTRAL EAST TENNESSEE

CITY           SKY/WX    TMP DP  RH WIND       PRES   REMARKS
KNOXVILLE      FAIR      40  39  97 NE6       30.25R FOG
OAK RIDGE      FAIR      39  38  96 CALM      30.27R
$$

TNZ083-085-099-181100-
SOUTHEAST TENNESSEE

CITY           SKY/WX    TMP DP  RH WIND       PRES   REMARKS
CHATTANOOGA    FAIR      44  37  76 N9        30.25S
$$

SKY/WX REPORTED AS FAIR MEANS FEW OR NO CLOUDS BELOW
12 THOUSAND FEET.




USA.gov is the U.S. government's official web portal to all federal, state and local government web resources and services.